This is the latest recevied weather packets stored in our database for station/object VE6HFD-WX. If no packets are shown the sender has not sent any weather packets the latest 10 day(s).
| Time | Temp. | Humidity | Pressure | Rain* | Wind** | Luminosity | Snow |
|---|---|---|---|---|---|---|---|
| 1788472120 | 17.22° C | 79% | 999.6 hPa | 0 mm | - | - | - |
| 1788471820 | 17.22° C | 78% | 999.7 hPa | 0 mm | - | - | - |
| 1788471490 | 17.78° C | 77% | 999.7 hPa | 0 mm | - | - | - |
| 1788471160 | 17.78° C | 76% | 999.6 hPa | 0 mm | - | - | - |
| 1788470830 | 17.78° C | 75% | 999.7 hPa | 0 mm | - | - | - |
| 1788470530 | 17.78° C | 75% | 999.7 hPa | 0 mm | - | - | - |
| 1788470215 | 18.33° C | 72% | 999.7 hPa | 0 mm | - | - | - |
| 1788469900 | 18.33° C | 72% | 999.6 hPa | 0 mm | - | - | - |
| 1788469600 | 18.89° C | 70% | 999.6 hPa | 0 mm | - | - | - |
| 1788469271 | 18.89° C | 69% | 999.5 hPa | 0 mm | - | - | - |
| 1788468970 | 18.89° C | 67% | 999.3 hPa | 0 mm | - | - | - |
| 1788468670 | 19.44° C | 68% | 999.4 hPa | 0 mm | - | - | - |
| 1788468341 | 18.89° C | 68% | 999.4 hPa | 0 mm | - | - | - |
| 1788468041 | 19.44° C | 65% | 999.2 hPa | 0 mm | - | - | - |
| 1788467710 | 20° C | 63% | 999.1 hPa | 0 mm | - | - | - |
| 1788467380 | 20.56° C | 62% | 999.1 hPa | 0 mm | - | - | - |
| 1788467073 | 20.56° C | 59% | 999 hPa | 0 mm | - | - | - |
| 1788466750 | 21.11° C | 59% | 998.9 hPa | 0 mm | - | - | - |
| 1788466451 | 20.56° C | 59% | 998.9 hPa | 0 mm | - | - | - |
| 1788466150 | 20° C | 60% | 998.9 hPa | 0 mm | - | - | - |
| 1788465851 | 20.56° C | 60% | 998.8 hPa | 0 mm | - | - | - |
| 1788465521 | 20.56° C | 59% | 998.7 hPa | 0 mm | - | - | - |
| 1788465221 | 20.56° C | 59% | 998.6 hPa | 0 mm | - | - | - |
| 1788464921 | 20° C | 60% | 998.5 hPa | 0 mm | - | - | - |
| 1788464621 | 20° C | 59% | 998.5 hPa | 0 mm | - | - | - |
* Rain latest hour (hover to see other rain measurements)
** Current wind speed in m/s (hover to see current wind gust speed)